Regional Weather Roundup
Issued by NWS Albany, NY

Home | Current Version | Previous Version | Text Only | Print | Product List | Glossary On
Versions: 1 2 3 4 5 6 7 8 9 10 11 12 13 14 15 16 17 18 19 20 21 22 23 24 25 26 27
000
ASUS41 KALY 241610
RWRALY

NEW YORK STATE HOURLY WEATHER ROUNDUP
NATIONAL WEATHER SERVICE ALBANY NY
1200 PM EDT TUE MAY 24 2016

NOTE: "FAIR" INDICATES FEW OR NO CLOUDS BELOW 12,000 FEET WITH NO
SIGNIFICANT WEATHER AND/OR NO OBSTRUCTIONS TO VISIBILITY.

NYZ032-033-038>043-046>054-057>066-NYZ062>081-082-084-241700-
EAST


CITY           SKY/WX    TMP DP  RH WIND       PRES   REMARKS
ALBANY         LGT RAIN  65  54  67 N8        29.93F
GLENS FALLS    CLOUDY    69  49  48 S5        29.93F
POUGHKEEPSIE   PTSUNNY   66  58  75 NW9       29.91S
MONTGOMERY     CLOUDY    67  56  67 NE8       29.92S
WHITE PLAINS   CLOUDY    68  56  65 VRB3      29.91S
ISLIP          CLOUDY    66  57  72 NW15      29.89F
NEW YORK CITY  CLOUDY    67  59  75 VRB5      29.92R
CENTRAL PARK   CLOUDY    64  56  75 CALM      29.95S
$$

NYZ005>009-017-018-044>046-055-056-241700-
CENTRAL


CITY           SKY/WX    TMP DP  RH WIND       PRES   REMARKS
FULTON         SUNNY     74  47  38 NW8       29.96F
SYRACUSE       PTSUNNY   73  46  38 VRB6      29.95F
ROME           CLOUDY    69  49  48 W10       29.95S
ELMIRA         SUNNY     78  44  29 N12G21    29.97F
BINGHAMTON     SUNNY     73  40  30 NW13G22   29.97F
MONTICELLO     PTSUNNY   70  48  46 SW9       29.95F
$$

NYZ026>034-041>043-087-241700-
NORTH


CITY           SKY/WX    TMP DP  RH WIND       PRES   REMARKS
WATERTOWN      SUNNY     71  53  52 W12       29.94F
FORT DRUM      NOT AVBL
MASSENA        SUNNY     78  43  28 W7        29.91F
SARANAC LAKE   CLOUDY    78  25  14 VRB6      29.92S
PLATTSBURGH    MOSUNNY   76  40  27 VRB5      29.90F
$$

NYZ001>004-010>016-019>021-085-241700-
WEST


CITY           SKY/WX    TMP DP  RH WIND       PRES   REMARKS
NIAGARA FALLS  SUNNY     78  42  27 NW9       30.00F
BUFFALO        MOSUNNY   68  46  45 SW14G23   30.03S
DUNKIRK        SUNNY     71  44  37 SW14      30.06S
JAMESTOWN        N/A    N/A N/A N/A MISG        N/A
WELLSVILLE     SUNNY     73  39  29 NW12G18   30.05F
ROCHESTER      MOSUNNY   76  38  25 N8        29.99S
PENN YAN       SUNNY     77  37  23 NW8       30.00S
$$

             KEY
       WCI = WIND CHILL INDEX
       VSB = VISIBILITY
       HX  = HEAT INDEX
$$




USA.gov is the U.S. government's official web portal to all federal, state and local government web resources and services.